Location: Treviso
(45.6669°N, 12.2430°E)
Time: 03:12:49
(UTC+02:00)

CUBESAT XI-V - Pass Details

Date: 03 May 2019
Orbit: 668 x 694 km, 98.0° (Epoch: 23 May)

Event Time Altitude Azimuth Distance (km) Brightness Sun altitude
Exits shadow 02:41:10 10° 119° (ESE) 2,112 ? -25.3°
Maximum altitude 02:44:53 25° 65° (ENE) 1,369 ? -25.0°
Drops below altitude 10° 02:48:39 10° 11° (N) 2,128 ? -24.7°
Sets 02:51:12 0° 358° (N) 3,043 ? -24.5°
